Location: Kikino
(54.4440°N, 112.0940°W)
Time: 17:56:53
(UTC+00:00)

A-11 Canister half - Pass Details

Date: 27 May 2024
Orbit: 1525 x 1683 km, 47.3° (Epoch: 12 June)

Event Time Altitude Azimuth Distance (km) Brightness Sun altitude
Rises 09:22:15 0° 283° (WNW) 4,757 11.4 -10.1°
Reaches altitude 10° 09:25:42 10° 274° (W) 3,793 10.8 -9.9°
Maximum altitude 09:33:47 32° 216° (SW) 2,519 9.6 -9.3°
Drops below altitude 10° 09:42:06 10° 159° (SSE) 3,888 10.8 -8.7°
Sets 09:45:42 0° 150° (SSE) 4,892 11.4 -8.4°
